| time (UTC) | temp F | wind direction | speed knots | gust knots | rain 1hr in | rain 24hr in | rain mn in | humidity % | barometer mb |
| 20260904151501 | 90 | 126 | 0.0 | 4.3 | 0.00 | 0.00 | 0.00 | 33 | 1012.4 |
| 20260904150104 | 90 | 355 | 0.0 | 4.3 | 0.00 | 0.00 | 0.00 | 33 | 1012.7 |
| 20260904144607 | 90 | 355 | 0.0 | 5.2 | 0.00 | 0.00 | 0.00 | 33 | 1012.8 |
| 20260904143056 | 89 | 184 | 0.9 | 7.0 | 0.00 | 0.00 | 0.00 | 34 | 1013.0 |
| 20260904141553 | 90 | 246 | 0.0 | 2.6 | 0.00 | 0.00 | 0.00 | 34 | 1013.2 |
| 20260904140057 | 89 | 193 | 0.9 | 6.1 | 0.00 | 0.00 | 0.00 | 35 | 1013.4 |
| 20260904134551 | 89 | 121 | 0.9 | 7.0 | 0.00 | 0.00 | 0.00 | 35 | 1013.8 |
| 20260904133047 | 89 | 182 | 1.7 | 6.1 | 0.00 | 0.00 | 0.00 | 35 | 1013.8 |
| 20260904131545 | 89 | 161 | 1.7 | 7.8 | 0.00 | 0.00 | 0.00 | 36 | 1014.1 |
| 20260904130044 | 89 | 227 | 0.9 | 4.3 | 0.00 | 0.00 | 0.00 | 37 | 1014.3 |
| 20260904124540 | 88 | 182 | 0.9 | 7.0 | 0.00 | 0.00 | 0.00 | 37 | 1014.5 |
| 20260904123038 | 88 | 113 | 1.7 | 7.0 | 0.00 | 0.00 | 0.00 | 37 | 1014.7 |
| 20260904121537 | 88 | 125 | 0.9 | 4.3 | 0.00 | 0.00 | 0.00 | 38 | 1014.8 |
| 20260904120033 | 88 | 264 | 1.7 | 7.0 | 0.00 | 0.00 | 0.00 | 38 | 1015.0 |
| 20260904114537 | 87 | 242 | 0.9 | 11.3 | 0.00 | 0.00 | 0.00 | 38 | 1015.3 |
| 20260904113033 | 87 | 323 | 1.7 | 10.4 | 0.00 | 0.00 | 0.00 | 39 | 1015.6 |
| 20260904111528 | 86 | 171 | 1.7 | 7.8 | 0.00 | 0.00 | 0.00 | 39 | 1015.8 |
| 20260904110026 | 86 | 355 | 1.7 | 5.2 | 0.00 | 0.00 | 0.00 | 39 | 1016.3 |
| 20260904104523 | 87 | 24 | 0.9 | 6.1 | 0.00 | 0.00 | 0.00 | 39 | 1016.3 |
| 20260904103020 | 86 | 5 | 1.7 | 8.7 | 0.00 | 0.00 | 0.00 | 41 | 1016.6 |
| 20260904101518 | 85 | 157 | 0.9 | 9.6 | 0.00 | 0.00 | 0.00 | 42 | 1017.0 |
| 20260904100014 | 84 | 193 | 2.6 | 13.0 | 0.00 | 0.00 | 0.00 | 43 | 1017.3 |
| 20260904094524 | 84 | 121 | 0.0 | 10.4 | 0.00 | 0.00 | 0.00 | 44 | 1017.5 |
| 20260904093008 | 83 | 338 | 1.7 | 7.8 | 0.00 | 0.00 | 0.00 | 46 | 1017.6 |
| 20260904091505 | 81 | 341 | 0.9 | 4.3 | 0.00 | 0.00 | 0.00 | 48 | 1017.7 |
| 20260904090002 | 80 | 159 | 0.0 | 4.3 | 0.00 | 0.00 | 0.00 | 50 | 1017.9 |
| 20260904084600 | 79 | 25 | 0.9 | 7.0 | 0.00 | 0.00 | 0.00 | 53 | 1018.0 |
| 20260904083107 | 77 | 77 | 0.0 | 1.7 | 0.00 | 0.00 | 0.00 | 58 | 1018.1 |
| 20260904081557 | 78 | 117 | 0.9 | 3.5 | 0.00 | 0.00 | 0.00 | 56 | 1018.2 |
| 20260904080104 | 80 | 92 | 0.0 | 5.2 | 0.00 | 0.00 | 0.00 | 53 | 1018.2 |
| 20260904074556 | 79 | 92 | 0.0 | 2.6 | 0.00 | 0.00 | 0.00 | 55 | 1018.3 |
| 20260904073101 | 76 | 94 | 0.0 | 3.5 | 0.00 | 0.00 | 0.00 | 57 | 1018.3 |
| 20260904071546 | 75 | 170 | 0.0 | 1.7 | 0.00 | 0.00 | 0.00 | 59 | 1018.5 |
| 20260904070045 | 74 | 149 | 0.0 | 1.7 | 0.00 | 0.00 | 0.00 | 62 | 1018.6 |
| 20260904064542 | 72 | 94 | 0.0 | 1.7 | 0.00 | 0.00 | 0.00 | 66 | 1018.6 |
| 20260904063035 | 69 | 252 | 0.0 | 0.0 | 0.00 | 0.00 | 0.00 | 73 | 1018.5 |
| 20260904061538 | 67 | 252 | 0.0 | 0.0 | 0.00 | 0.00 | 0.00 | 79 | 1018.6 |
| 20260904060046 | 64 | 252 | 0.0 | 0.0 | 0.00 | 0.00 | 0.00 | 81 | 1018.7 |
| 20260904054538 | 63 | 252 | 0.0 | 0.0 | 0.00 | 0.00 | 0.00 | 81 | 1018.5 |
| 20260904053024 | 62 | 252 | 0.0 | 0.0 | 0.00 | 0.00 | 0.00 | 81 | 1018.5 |
| 20260904051525 | 62 | 252 | 0.0 | 0.0 | 0.00 | 0.00 | 0.00 | 81 | 1018.7 |
| 20260904050037 | 61 | 252 | 0.0 | 0.0 | 0.00 | 0.00 | 0.00 | 82 | 1018.6 |
| 20260904044526 | 61 | 252 | 0.0 | 0.0 | 0.00 | 0.00 | 0.00 | 82 | 1018.6 |
| 20260904043019 | 61 | 252 | 0.0 | 0.0 | 0.00 | 0.00 | 0.00 | 82 | 1018.6 |
| 20260904041520 | 61 | 252 | 0.0 | 0.0 | 0.00 | 0.00 | 0.00 | 81 | 1018.6 |
| 20260904040033 | 62 | 252 | 0.0 | 0.0 | 0.00 | 0.00 | 0.00 | 81 | 1018.5 |
| 20260904034514 | 63 | 252 | 0.0 | 0.0 | 0.00 | 0.00 | 0.00 | 80 | 1018.7 |
| 20260904033011 | 63 | 252 | 0.0 | 0.0 | 0.00 | 0.00 | 0.00 | 80 | 1018.5 |
| 20260904031512 | 64 | 252 | 0.0 | 0.0 | 0.00 | 0.00 | 0.00 | 78 | 1018.4 |
| 20260904030006 | 64 | 252 | 0.0 | 0.0 | 0.00 | 0.00 | 0.00 | 77 | 1018.4 |
| 20260904024508 | 65 | 252 | 0.0 | 0.0 | 0.00 | 0.00 | 0.00 | 76 | 1018.4 |
| 20260904023007 | 65 | 252 | 0.0 | 0.0 | 0.00 | 0.00 | 0.00 | 76 | 1018.3 |
| 20260904021512 | 65 | 252 | 0.0 | 0.0 | 0.00 | 0.00 | 0.00 | 77 | 1018.3 |
| 20260904020004 | 65 | 252 | 0.0 | 0.0 | 0.00 | 0.00 | 0.00 | 76 | 1018.4 |
| 20260904014502 | 65 | 252 | 0.0 | 0.0 | 0.00 | 0.00 | 0.00 | 76 | 1018.3 |
| 20260904013124 | 65 | 252 | 0.0 | 0.0 | 0.00 | 0.00 | 0.00 | 75 | 1018.6 |
| 20260904011600 | 65 | 252 | 0.0 | 0.0 | 0.00 | 0.00 | 0.00 | 74 | 1018.5 |
| 20260904010059 | 65 | 252 | 0.0 | 0.0 | 0.00 | 0.00 | 0.00 | 75 | 1018.7 |
| 20260904004558 | 65 | 252 | 0.0 | 0.0 | 0.00 | 0.00 | 0.00 | 75 | 1018.8 |
| 20260904003056 | 65 | 252 | 0.0 | 0.0 | 0.00 | 0.00 | 0.00 | 75 | 1019.0 |
| 20260904001607 | 65 | 252 | 0.0 | 0.0 | 0.00 | 0.00 | 0.00 | 74 | 1019.2 |
| 20260904000054 | 65 | 252 | 0.0 | 0.0 | 0.00 | 0.00 | 0.00 | 73 | 1019.2 |
| 20260903234552 | 65 | 252 | 0.0 | 0.0 | 0.00 | 0.00 | 0.00 | 73 | 1019.1 |
| 20260903233049 | 66 | 252 | 0.0 | 0.0 | 0.00 | 0.00 | 0.00 | 70 | 1019.2 |
| 20260903231544 | 67 | 252 | 0.0 | 0.0 | 0.00 | 0.00 | 0.00 | 69 | 1019.2 |
| 20260903230041 | 68 | 252 | 0.0 | 0.9 | 0.00 | 0.00 | 0.00 | 68 | 1019.4 |
| 20260903224541 | 68 | 250 | 0.0 | 0.9 | 0.00 | 0.00 | 0.00 | 66 | 1019.5 |
| 20260903223041 | 69 | 232 | 0.0 | 0.9 | 0.00 | 0.00 | 0.00 | 64 | 1019.5 |
| 20260903221534 | 70 | 226 | 0.0 | 0.0 | 0.00 | 0.00 | 0.00 | 63 | 1019.6 |
| 20260903220032 | 70 | 309 | 0.0 | 0.9 | 0.00 | 0.00 | 0.00 | 62 | 1019.6 |
| 20260903214537 | 70 | 327 | 0.0 | 0.9 | 0.00 | 0.00 | 0.00 | 61 | 1019.8 |
| 20260903213042 | 70 | 327 | 0.0 | 1.7 | 0.00 | 0.00 | 0.00 | 61 | 1020.0 |
| 20260903211531 | 71 | 324 | 0.0 | 3.5 | 0.00 | 0.00 | 0.00 | 61 | 1019.7 |
| 20260903210033 | 71 | 321 | 0.0 | 2.6 | 0.00 | 0.00 | 0.00 | 60 | 1019.6 |
| 20260903204530 | 71 | 348 | 0.0 | 2.6 | 0.00 | 0.00 | 0.00 | 59 | 1019.8 |
| 20260903203029 | 71 | 321 | 0.0 | 3.5 | 0.00 | 0.00 | 0.00 | 59 | 1019.8 |
| 20260903201529 | 72 | 325 | 0.9 | 5.2 | 0.00 | 0.00 | 0.00 | 58 | 1019.9 |
| 20260903200029 | 72 | 32 | 0.0 | 3.5 | 0.00 | 0.00 | 0.00 | 56 | 1019.9 |
| 20260903194528 | 73 | 319 | 0.9 | 5.2 | 0.00 | 0.00 | 0.00 | 55 | 1019.8 |
| 20260903193028 | 74 | 338 | 0.9 | 8.7 | 0.00 | 0.00 | 0.00 | 53 | 1019.7 |
| 20260903191537 | 75 | 34 | 0.0 | 5.2 | 0.00 | 0.00 | 0.00 | 51 | 1019.5 |
| 20260903190027 | 75 | 340 | 0.0 | 7.0 | 0.00 | 0.00 | 0.00 | 49 | 1019.1 |
| 20260903184526 | 76 | 347 | 0.9 | 7.8 | 0.00 | 0.00 | 0.00 | 48 | 1018.8 |
| 20260903183030 | 76 | 334 | 0.0 | 1.7 | 0.00 | 0.00 | 0.00 | 49 | 1018.7 |
| 20260903181526 | 76 | 333 | 0.0 | 1.7 | 0.00 | 0.00 | 0.00 | 48 | 1018.5 |
| 20260903180032 | 76 | 333 | 0.0 | 3.5 | 0.00 | 0.00 | 0.00 | 47 | 1018.4 |
| 20260903174525 | 76 | 332 | 0.0 | 4.3 | 0.00 | 0.00 | 0.00 | 47 | 1018.2 |
| 20260903173024 | 77 | 338 | 0.0 | 4.3 | 0.00 | 0.00 | 0.00 | 46 | 1018.1 |
| 20260903171530 | 77 | 303 | 0.0 | 3.5 | 0.00 | 0.00 | 0.00 | 46 | 1018.1 |
| 20260903170024 | 78 | 326 | 0.9 | 5.2 | 0.00 | 0.00 | 0.00 | 45 | 1018.2 |
| 20260903164523 | 78 | 330 | 0.0 | 3.5 | 0.00 | 0.00 | 0.00 | 44 | 1018.2 |
| 20260903163023 | 78 | 351 | 0.0 | 4.3 | 0.00 | 0.00 | 0.00 | 44 | 1018.0 |
| 20260903161522 | 79 | 26 | 0.0 | 1.7 | 0.00 | 0.00 | 0.00 | 44 | 1018.0 |
| 20260903160022 | 79 | 17 | 0.0 | 4.3 | 0.00 | 0.00 | 0.00 | 43 | 1018.0 |
| 20260903154521 | 80 | 294 | 1.7 | 5.2 | 0.00 | 0.00 | 0.00 | 42 | 1017.9 |
| 20260903153020 | 80 | 351 | 0.9 | 8.7 | 0.00 | 0.00 | 0.00 | 42 | 1017.6 |